TimePDT,TemperatureF,Dew PointF,Humidity,Sea Level PressureIn,VisibilityMPH,Wind Direction,Wind SpeedMPH,Gust SpeedMPH,PrecipitationIn,Events,Conditions,WindDirDegrees,DateUTC
12:53 AM,51.8,46.4,82,29.85,10.0,ESE,5.8,-,N/A,,Overcast,110,2012-10-12 07:53:00
1:53 AM,52.0,48.0,86,29.86,10.0,SE,8.1,-,N/A,,Overcast,140,2012-10-12 08:53:00
2:53 AM,52.0,48.0,86,29.86,10.0,ESE,6.9,-,N/A,,Overcast,120,2012-10-12 09:53:00
3:36 AM,51.8,48.2,88,29.85,10.0,ESE,4.6,-,N/A,,Overcast,110,2012-10-12 10:36:00
3:53 AM,52.0,48.0,86,29.86,10.0,SE,5.8,-,0.00,Rain,Light Rain,130,2012-10-12 10:53:00
4:53 AM,51.1,48.9,92,29.87,9.0,SE,3.5,-,0.04,Rain,Light Rain,130,2012-10-12 11:53:00
5:32 AM,51.8,50.0,94,29.85,2.0,ESE,6.9,-,0.02,Rain,Light Rain,120,2012-10-12 12:32:00
5:41 AM,51.8,50.0,94,29.86,2.5,SE,6.9,-,0.03,Rain,Light Rain,130,2012-10-12 12:41:00
5:49 AM,51.8,50.0,94,29.86,3.0,SE,5.8,-,0.04,Rain,Light Rain,140,2012-10-12 12:49:00
5:53 AM,51.1,50.0,96,29.87,2.5,SE,5.8,-,0.04,Rain,Light Rain,130,2012-10-12 12:53:00
6:01 AM,51.8,50.0,94,29.86,6.0,SE,8.1,-,0.00,Rain,Light Rain,130,2012-10-12 13:01:00
6:53 AM,51.8,50.0,94,29.86,4.0,SE,8.1,-,N/A,,Overcast,140,2012-10-12 13:53:00
7:33 AM,51.8,50.0,94,29.87,5.0,SSE,11.5,-,N/A,,Overcast,160,2012-10-12 14:33:00
7:53 AM,52.0,50.0,93,29.88,2.0,SSE,11.5,-,0.00,Rain,Light Rain,150,2012-10-12 14:53:00
8:19 AM,51.8,51.8,100,29.88,1.8,SSE,5.8,-,0.01,Rain,Light Rain,150,2012-10-12 15:19:00
8:36 AM,51.8,51.8,100,29.88,1.2,SE,6.9,-,0.03,Rain,Light Rain,130,2012-10-12 15:36:00
8:53 AM,51.8,51.8,100,29.88,1.2,SE,10.4,-,N/A,Rain,Light Rain,140,2012-10-12 15:53:00
9:12 AM,51.8,51.8,100,29.89,3.0,ESE,4.6,-,0.01,Rain,Light Rain,110,2012-10-12 16:12:00
9:19 AM,51.8,51.8,100,29.89,2.5,East,5.8,-,0.02,Rain,Light Rain,90,2012-10-12 16:19:00
9:31 AM,51.8,51.8,100,29.89,1.5,ESE,5.8,-,N/A,Rain,Light Rain,120,2012-10-12 16:31:00
9:53 AM,52.0,51.1,97,29.90,1.5,East,8.1,-,0.07,Rain,Rain,90,2012-10-12 16:53:00
10:51 AM,53.6,51.8,94,29.91,3.0,East,6.9,-,0.05,Rain,Light Rain,80,2012-10-12 17:51:00
10:52 AM,53.1,52.0,96,29.92,3.0,East,6.9,-,0.05,Rain,Light Rain,80,2012-10-12 17:52:00
10:59 AM,53.6,51.8,94,29.91,2.0,ENE,5.8,-,0.01,Rain,Light Rain,70,2012-10-12 17:59:00
11:05 AM,53.6,51.8,94,29.91,1.2,East,5.8,-,0.03,Rain,Rain,90,2012-10-12 18:05:00
11:30 AM,53.6,51.8,94,29.91,2.0,East,4.6,-,0.05,,Overcast,80,2012-10-12 18:30:00
11:53 AM,53.1,52.0,96,29.93,2.5,SE,4.6,-,0.05,Rain,Light Rain,130,2012-10-12 18:53:00
12:53 PM,53.6,51.8,94,29.92,3.0,SE,6.9,-,N/A,,Overcast,130,2012-10-12 19:53:00
1:53 PM,54.0,51.1,90,29.92,9.0,SSE,19.6,27.6,N/A,,Overcast,160,2012-10-12 20:53:00
2:53 PM,53.6,51.8,94,29.90,5.0,SSE,25.3,35.7,N/A,,Overcast,160,2012-10-12 21:53:00
3:12 PM,53.6,51.8,94,29.90,4.0,South,26.5,36.8,N/A,,Overcast,170,2012-10-12 22:12:00
3:53 PM,54.0,51.1,90,29.91,4.0,South,27.6,39.1,0.00,,Overcast,170,2012-10-12 22:53:00
4:53 PM,54.0,51.1,90,29.92,4.0,South,25.3,34.5,N/A,,Overcast,170,2012-10-12 23:53:00
5:25 PM,53.6,51.8,94,29.91,3.0,SSE,26.5,35.7,N/A,,Overcast,160,2012-10-13 00:25:00
5:33 PM,53.6,51.8,94,29.91,2.0,South,23.0,35.7,N/A,,Overcast,170,2012-10-13 00:33:00
5:44 PM,53.6,51.8,94,29.91,4.0,SSE,26.5,34.5,N/A,,Overcast,160,2012-10-13 00:44:00
5:50 PM,53.6,51.8,94,29.91,2.5,SSE,27.6,38.0,N/A,,Overcast,160,2012-10-13 00:50:00
5:51 PM,53.1,51.1,93,29.92,2.5,SSE,26.5,38.0,N/A,,Overcast,160,2012-10-13 00:51:00
6:07 PM,53.6,51.8,94,29.92,3.0,South,25.3,36.8,N/A,,Overcast,170,2012-10-13 01:07:00
6:49 PM,53.6,51.8,94,29.92,6.0,South,21.9,34.5,0.02,,Overcast,170,2012-10-13 01:49:00
6:53 PM,53.6,51.8,94,29.92,6.0,South,25.3,36.8,N/A,,Overcast,170,2012-10-13 01:53:00
7:53 PM,53.1,51.1,93,29.95,5.0,South,27.6,33.4,0.00,,Overcast,170,2012-10-13 02:53:00
8:40 PM,53.6,51.8,94,29.94,7.0,South,18.4,28.8,N/A,,Overcast,170,2012-10-13 03:40:00
8:53 PM,53.1,51.1,93,29.96,6.0,South,21.9,28.8,N/A,,Overcast,170,2012-10-13 03:53:00
9:33 PM,53.6,51.8,94,29.97,10.0,South,18.4,28.8,0.00,,Overcast,170,2012-10-13 04:33:00
9:53 PM,54.0,51.1,90,29.99,10.0,South,24.2,28.8,0.00,,Overcast,170,2012-10-13 04:53:00
10:15 PM,53.6,51.8,94,29.99,4.0,South,20.7,-,0.00,Rain,Light Rain,170,2012-10-13 05:15:00
10:53 PM,54.0,52.0,93,29.99,6.0,SSE,21.9,28.8,0.00,,Overcast,160,2012-10-13 05:53:00
11:53 PM,54.0,52.0,93,30.01,4.0,SSE,20.7,-,0.01,Rain,Light Rain,160,2012-10-13 06:53:00